Total_Precipitation_Accumulation
0.05 0.09 0.15 0.14 0.13 0.15 0.18 0.27 0.39 0.49 0.43 0.46 0.58 0.89 1.16 1.34 1.27 1.11 1.16 1.34 1.35 1.31 1.45 1.64 2.11 2.72 3.14 3.63 4.06 4.06 3.83 3.86 3.87 3.88 3.71 3.91 4.13 4.40 4.65 4.55 4.44 4.33 4.25 4.20
0.08 0.09 0.07 0.08 0.12 0.11 0.15 0.24 0.35 0.49 0.46 0.52 0.62 0.93 1.30 1.43 1.41 1.35 1.32 1.50 1.37 1.38 1.58 1.83 2.26 2.56 2.96 3.31 3.51 3.82 3.95 3.99 3.76 4.07 4.36 4.62 4.96 5.01 5.29 5.55 5.60 5.41 5.14 4.90
0.10 0.06 0.04 0.05 0.07 0.11 0.14 0.18 0.30 0.38 0.39 0.46 0.60 1.10 1.32 1.46 1.45 1.50 1.56 1.73 1.66 1.65 1.81 2.13 2.42 2.55 2.76 3.14 3.42 3.73 4.03 4.14 4.06 4.52 5.03 5.47 5.84 5.79 5.81 5.82 5.81 5.73 5.30 4.92
0.06 0.04 0.03 0.03 0.06 0.09 0.12 0.10 0.14 0.22 0.32 0.50 0.54 1.03 1.33 1.56 1.65 1.52 1.66 1.79 1.84 1.68 1.69 1.98 2.28 2.67 2.68 2.93 3.22 3.47 3.83 4.22 4.52 4.95 5.45 6.01 6.35 6.55 6.38 6.02 5.74 5.35 4.92 4.54
0.06 0.05 0.05 0.06 0.08 0.08 0.10 0.08 0.11 0.17 0.28 0.46 0.54 0.85 1.33 1.54 1.59 1.56 1.65 1.71 1.81 1.70 1.66 1.84 1.98 2.28 2.48 2.71 3.00 3.30 3.63 4.02 4.66 5.44 6.02 6.44 6.79 6.78 6.26 5.72 5.14 4.67 4.32 4.01
0.04 0.05 0.04 0.04 0.05 0.05 0.07 0.12 0.18 0.21 0.31 0.60 0.54 0.79 1.46 1.66 1.68 1.76 1.72 1.70 1.78 1.75 1.75 1.87 1.97 2.21 2.37 2.49 2.76 3.12 3.54 3.87 4.40 5.15 5.79 6.07 6.27 6.21 5.76 5.13 4.59 4.18 3.76 3.40
0.08 0.07 0.05 0.03 0.04 0.05 0.08 0.23 0.44 0.59 0.64 0.63 0.51 0.82 1.56 1.78 1.71 1.73 1.81 1.84 1.92 1.94 1.93 1.87 1.85 1.98 2.18 2.31 2.51 2.81 3.18 3.63 3.98 4.37 4.93 5.02 5.07 4.85 4.46 4.23 3.94 3.49 3.08 2.73
0.20 0.18 0.09 0.05 0.05 0.06 0.07 0.19 0.52 0.71 0.72 0.74 0.81 1.31 1.92 1.92 1.81 1.77 1.72 1.67 1.73 1.80 1.74 1.74 1.68 1.87 2.08 2.29 2.46 2.63 2.88 3.27 3.61 3.71 3.81 3.73 3.63 3.57 3.42 3.22 2.87 2.57 2.34 2.17
0.29 0.27 0.11 0.05 0.04 0.05 0.07 0.11 0.20 0.33 0.49 0.77 1.15 1.63 2.11 2.21 2.02 1.83 1.73 1.63 1.62 1.59 1.52 1.58 1.59 1.69 1.87 2.17 2.34 2.47 2.59 2.75 2.77 2.73 2.72 2.71 2.69 2.58 2.53 2.43 2.17 1.98 1.86 1.72
0.19 0.20 0.10 0.07 0.06 0.07 0.07 0.09 0.15 0.36 0.65 0.97 1.33 1.88 2.33 2.50 2.29 1.82 1.60 1.49 1.48 1.53 1.53 1.54 1.60 1.69 1.65 1.75 1.89 2.02 2.16 2.31 2.29 2.14 2.02 2.08 2.08 1.96 1.84 1.70 1.59 1.50 1.43 1.35
0.16 0.20 0.15 0.11 0.13 0.13 0.12 0.15 0.20 0.38 0.49 0.81 1.43 2.12 2.19 2.51 2.45 2.10 1.76 1.53 1.52 1.61 1.59 1.50 1.56 1.57 1.48 1.43 1.42 1.50 1.61 1.79 1.87 1.80 1.76 1.78 1.74 1.67 1.56 1.45 1.35 1.27 1.22 1.17
0.18 0.28 0.30 0.20 0.18 0.16 0.16 0.20 0.25 0.53 0.59 0.62 1.26 2.26 2.15 2.22 2.34 2.25 2.04 1.84 1.67 1.62 1.56 1.46 1.44 1.47 1.43 1.36 1.26 1.30 1.36 1.33 1.39 1.42 1.54 1.66 1.57 1.50 1.44 1.39 1.31 1.23 1.11 1.07
0.21 0.39 0.65 0.70 0.61 0.34 0.24 0.21 0.22 0.30 0.47 0.71 1.28 2.21 2.33 2.29 2.26 2.22 2.08 1.83 1.70 1.72 1.74 1.55 1.40 1.37 1.38 1.30 1.24 1.23 1.26 1.18 1.14 1.15 1.21 1.34 1.38 1.36 1.35 1.20 1.12 1.08 1.04 1.03
0.19 0.45 0.77 1.18 1.08 0.58 0.35 0.28 0.25 0.33 0.58 0.83 1.19 1.72 1.91 2.16 2.39 2.22 1.97 1.73 1.64 1.77 1.73 1.51 1.41 1.35 1.27 1.21 1.19 1.16 1.10 1.00 0.99 1.03 1.13 1.17 1.21 1.25 1.26 1.15 1.04 0.99 0.96 0.93
0.24 0.52 0.57 0.62 0.45 0.35 0.35 0.35 0.33 0.37 0.47 0.84 1.25 1.65 1.95 2.16 2.20 2.10 1.82 1.56 1.56 1.66 1.69 1.61 1.47 1.34 1.17 1.07 1.05 1.02 0.99 0.93 0.91 0.97 1.09 1.18 1.12 1.08 1.14 1.18 1.06 0.94 0.89 0.82
0.26 0.49 0.51 0.52 0.42 0.40 0.49 0.48 0.52 0.55 0.61 0.80 1.18 1.72 1.90 1.87 1.66 1.68 1.66 1.51 1.62 1.80 1.89 1.84 1.67 1.49 1.28 1.13 1.06 1.04 1.00 0.88 0.83 0.89 1.05 1.11 1.10 1.08 1.10 1.14 1.09 1.01 0.93 0.90
0.33 0.56 0.70 0.71 0.52 0.66 1.05 0.84 0.79 0.82 0.83 0.95 1.31 1.48 1.38 1.42 1.42 1.48 1.53 1.57 1.77 1.93 1.95 1.86 1.74 1.56 1.37 1.28 1.16 1.14 1.07 0.93 0.92 0.94 0.96 1.04 1.08 1.12 1.14 1.11 1.07 1.04 1.02 1.02
0.35 0.61 0.76 0.71 0.84 1.41 1.34 0.84 0.79 0.83 0.88 0.84 0.91 0.93 1.02 1.13 1.27 1.46 1.55 1.68 1.89 2.02 2.11 2.02 1.78 1.61 1.39 1.23 1.15 1.09 1.03 0.96 1.01 0.98 0.94 0.95 0.95 0.97 0.96 1.02 1.07 1.05 1.02 0.96
0.22 0.52 0.83 0.93 1.22 1.45 1.25 0.81 0.77 0.94 1.10 0.83 0.76 0.73 0.83 0.92 1.11 1.57 1.69 1.75 1.90 2.00 1.98 1.92 1.74 1.61 1.47 1.29 1.19 1.10 1.04 1.01 0.98 0.92 0.88 0.83 0.78 0.80 0.82 0.89 1.00 1.07 1.03 0.93
0.24 0.37 0.83 1.05 1.47 1.90 1.59 0.74 0.48 0.77 1.43 0.96 0.68 0.60 0.70 0.93 1.30 1.52 1.48 1.51 1.54 1.55 1.48 1.46 1.40 1.36 1.30 1.18 1.12 1.09 1.06 0.99 0.90 0.82 0.76 0.69 0.70 0.73 0.74 0.81 0.92 0.98 1.00 0.89
0.59 0.67 0.90 1.12 1.50 1.73 0.92 0.50 0.53 1.28 1.63 1.12 0.91 0.77 0.80 1.04 1.16 1.05 1.02 1.16 1.24 1.28 1.24 1.17 1.15 1.18 1.16 1.06 1.05 1.07 1.02 0.93 0.77 0.66 0.64 0.64 0.69 0.74 0.72 0.82 0.90 0.88 0.83 0.82
0.71 0.88 1.02 1.27 1.68 1.78 0.72 0.54 0.98 1.19 0.89 0.85 0.88 0.86 0.86 0.85 0.76 0.74 0.82 1.00 1.20 1.35 1.29 1.18 1.12 1.08 1.00 0.96 1.04 1.06 0.97 0.79 0.65 0.62 0.65 0.69 0.69 0.66 0.65 0.80 0.88 0.80 0.77 0.76
0.87 0.95 1.07 1.31 1.51 1.12 0.61 0.61 0.64 0.63 0.61 0.62 0.64 0.65 0.69 0.76 0.75 0.73 0.82 0.95 1.12 1.21 1.22 1.16 1.06 0.97 0.86 0.82 0.89 0.91 0.78 0.59 0.55 0.60 0.68 0.70 0.65 0.73 0.74 0.73 0.74 0.74 0.75 0.66
0.98 0.80 0.85 1.04 1.03 0.75 0.58 0.50 0.46 0.47 0.49 0.52 0.59 0.61 0.68 0.84 0.87 0.83 0.87 0.98 1.11 1.13 1.02 0.94 0.89 0.83 0.74 0.67 0.65 0.63 0.53 0.50 0.56 0.65 0.68 0.65 0.68 0.79 0.79 0.70 0.60 0.58 0.57 0.53
0.88 0.99 1.13 1.29 1.15 0.89 0.63 0.51 0.50 0.47 0.51 0.57 0.66 0.67 0.71 0.77 0.82 0.85 0.86 0.88 0.91 0.91 0.84 0.76 0.72 0.68 0.58 0.54 0.50 0.43 0.41 0.45 0.56 0.60 0.64 0.64 0.65 0.70 0.75 0.67 0.51 0.46 0.41 0.34
0.63 0.94 1.38 1.60 1.27 1.14 0.87 0.66 0.66 0.64 0.64 0.65 0.63 0.60 0.62 0.61 0.62 0.67 0.70 0.71 0.72 0.74 0.72 0.69 0.63 0.58 0.51 0.48 0.45 0.42 0.38 0.41 0.53 0.57 0.55 0.51 0.54 0.57 0.59 0.59 0.50 0.34 0.21 0.16